This is the latest recevied weather packets stored in our database for station/object NR6G-12. If no packets are shown the sender has not sent any weather packets the latest 10 day(s).
| Time | Temp. | Humidity | Pressure | Rain* | Wind** | Luminosity | Snow |
|---|---|---|---|---|---|---|---|
| 1777746060 | 18.33° C | 56% | 1015.7 hPa | 0 mm | - | - | - |
| 1777745700 | 18.33° C | 59% | 1015.6 hPa | 0 mm | - | - | - |
| 1777745340 | 18.33° C | 63% | 1015.6 hPa | 0 mm | - | - | - |
| 1777744980 | 18.33° C | 60% | 1015.7 hPa | 0 mm | - | - | - |
| 1777744620 | 18.33° C | 61% | 1015.6 hPa | 0 mm | - | - | - |
| 1777744260 | 18.33° C | 58% | 1015.6 hPa | 0 mm | - | - | - |
| 1777743900 | 18.89° C | 59% | 1015.5 hPa | 0 mm | - | - | - |
| 1777743540 | 19.44° C | 57% | 1015.7 hPa | 0 mm | - | - | - |
| 1777743180 | 20° C | 55% | 1015.7 hPa | 0 mm | - | - | - |
| 1777742820 | 20.56° C | 53% | 1015.6 hPa | 0 mm | - | - | - |
| 1777742460 | 20.56° C | 51% | 1015.7 hPa | 0 mm | - | - | - |
| 1777742100 | 20.56° C | 42% | 1015.7 hPa | 0 mm | - | - | - |
| 1777741740 | 20.56° C | 48% | 1015.7 hPa | 0 mm | - | - | - |
| 1777741380 | 20° C | 46% | 1015.8 hPa | 0 mm | - | - | - |
| 1777741020 | 20° C | 45% | 1015.7 hPa | 0 mm | - | - | - |
| 1777740660 | 20° C | 49% | 1015.8 hPa | 0 mm | - | - | - |
| 1777740300 | 19.44° C | 45% | 1015.8 hPa | 0 mm | - | - | - |
| 1777739940 | 19.44° C | 40% | 1015.9 hPa | 0 mm | - | - | - |
| 1777739580 | 20° C | 41% | 1015.9 hPa | 0 mm | - | - | - |
| 1777739220 | 19.44° C | 41% | 1015.8 hPa | 0 mm | - | - | - |
| 1777738860 | 19.44° C | 44% | 1015.7 hPa | 0 mm | - | - | - |
| 1777738500 | 19.44° C | 39% | 1015.8 hPa | 0 mm | - | - | - |
| 1777738140 | 18.89° C | 40% | 1015.8 hPa | 0 mm | - | - | - |
| 1777737780 | 18.89° C | 45% | 1015.9 hPa | 0 mm | - | - | - |
| 1777737420 | 18.33° C | 45% | 1015.8 hPa | 0 mm | - | - | - |
* Rain latest hour (hover to see other rain measurements)
** Current wind speed in m/s (hover to see current wind gust speed)